GW2669 Weather Reports


Display with metric or nautical units.
time (UTC)temp
F
wind
direction
speed
MPH
gust
MPH
rain 1hr
in
rain 24hr
in
rain mn
in
humidity
%
barometer
mb
20260902191600 97 0 1.0 4.0 0.00 0.00 0.00 31 1015.8
20260902190105 97 42 0.0 14.0 0.00 0.00 0.00 33 1016.0
20260902184604 96 105 4.0 10.0 0.00 0.00 0.00 30 1016.1
20260902183108 96 132 4.0 10.0 0.00 0.00 0.00 33 1016.4
20260902181602 95 0 4.0 9.0 0.00 0.00 0.00 32 1016.5
20260902180103 95 65 2.0 7.0 0.00 0.00 0.00 37 1016.8
20260902174609 94 20 3.0 10.0 0.00 0.00 0.00 34 1017.1
20260902173106 93 105 1.0 8.0 0.00 0.00 0.00 35 1017.2
20260902171608 93 65 4.0 8.0 0.00 0.00 0.00 36 1017.6
20260902164605 91 32 3.0 9.0 0.00 0.00 0.00 38 1017.7
20260902163101 90 54 5.0 10.0 0.00 0.00 0.00 42 1017.8
20260902161615 90 12 3.0 9.0 0.00 0.00 0.00 40 1017.8
20260902160103 88 36 2.0 8.0 0.00 0.00 0.00 41 1017.9
20260902154601 87 331 4.0 7.0 0.00 0.00 0.00 44 1017.8
20260902153059 85 41 1.0 4.0 0.00 0.00 0.00 48 1017.7
20260902151551 84 23 0.0 3.0 0.00 0.00 0.00 49 1017.6
20260902144611 81 350 4.0 7.0 0.00 0.00 0.00 55 1017.6
20260902143059 79 327 4.0 7.0 0.00 0.00 0.00 59 1017.5
20260902141601 77 340 3.0 5.0 0.00 0.00 0.00 64 1017.4
20260902140059 76 336 4.0 5.0 0.00 0.00 0.00 65 1017.1
20260902134602 75 310 4.0 6.0 0.00 0.00 0.00 68 1017.1
20260902133102 74 0 0.0 2.0 0.00 0.00 0.00 69 1016.8
20260902131559 73 60 1.0 4.0 0.00 0.00 0.00 70 1016.7
20260902124604 75 0 0.0 2.0 0.00 0.00 0.00 66 1016.2
20260902123102 75 243 3.0 5.0 0.00 0.00 0.00 64 1016.0
20260902121610 74 229 2.0 2.0 0.00 0.00 0.00 67 1016.0
20260902120110 75 243 2.0 3.0 0.00 0.00 0.00 66 1016.1
20260902114619 74 249 0.0 3.0 0.00 0.00 0.00 68 1016.0
20260902113103 75 266 0.0 3.0 0.00 0.00 0.00 67 1016.1
20260902111605 75 0 0.0 1.0 0.00 0.00 0.00 62 1016.0
20260902110101 74 197 0.0 3.0 0.00 0.00 0.00 65 1016.0
20260902104604 75 210 1.0 2.0 0.00 0.00 0.00 66 1016.1
20260902103117 76 0 0.0 3.0 0.00 0.00 0.00 61 1016.0
20260902101558 77 0 0.0 3.0 0.00 0.00 0.00 59 1016.1
20260902100059 77 0 0.0 0.0 0.00 0.00 0.00 58 1016.1
20260902094600 77 0 0.0 2.0 0.00 0.00 0.00 58 1016.0
20260902093110 77 154 1.0 2.0 0.00 0.00 0.00 61 1016.0
20260902091559 76 0 0.0 0.0 0.00 0.00 0.00 59 1016.1
20260902084602 76 0 0.0 0.0 0.00 0.00 0.00 58 1016.3
20260902083059 76 0 0.0 0.0 0.00 0.00 0.00 59 1016.4
20260902081558 77 0 0.0 0.0 0.00 0.00 0.00 61 1016.4
20260902080104 78 0 0.0 0.0 0.00 0.00 0.00 59 1016.4
20260902074613 78 0 0.0 4.0 0.00 0.00 0.00 58 1016.4
20260902073104 78 147 0.0 3.0 0.00 0.00 0.00 57 1016.3
20260902071603 79 0 0.0 5.0 0.00 0.00 0.00 55 1016.4
20260902070103 79 144 5.0 9.0 0.00 0.00 0.00 54 1016.3
20260902064602 80 155 4.0 6.0 0.00 0.00 0.00 53 1016.3
20260902063059 79 171 2.0 9.0 0.00 0.00 0.00 54 1016.3
20260902061602 80 140 7.0 9.0 0.00 0.00 0.00 53 1016.3
20260902060111 79 140 0.0 4.0 0.00 0.00 0.00 55 1016.3
20260902054602 79 176 0.0 5.0 0.00 0.00 0.00 54 1016.1
20260902053106 80 143 6.0 9.0 0.00 0.00 0.00 53 1016.1
20260902051559 80 145 5.0 10.0 0.00 0.00 0.00 52 1016.2
20260902044601 80 128 6.0 9.0 0.00 0.00 0.00 53 1016.3
20260902043109 82 148 5.0 9.0 0.00 0.00 0.00 50 1016.3
20260902041600 83 125 12.0 15.0 0.00 0.00 0.00 48 1016.4
20260902040105 83 147 10.0 14.0 0.00 0.00 0.00 48 1016.3
20260902034606 82 128 9.0 14.0 0.00 0.00 0.00 52 1016.0
20260902033105 82 144 2.0 10.0 0.00 0.00 0.00 51 1015.7
20260902031606 84 135 9.0 13.0 0.00 0.00 0.00 47 1015.6
20260902024604 85 139 9.0 12.0 0.00 0.80 0.00 47 1015.3
20260902023058 85 142 8.0 11.0 0.00 0.80 0.00 49 1015.0
20260902021601 85 134 4.0 9.0 0.00 0.80 0.00 51 1014.7
20260902020104 86 140 6.0 10.0 0.00 0.80 0.00 48 1014.5
20260902014600 87 150 5.0 9.0 0.00 1.31 0.00 45 1014.3
20260902013100 87 138 5.0 9.0 0.00 1.31 0.00 45 1013.6
20260902011559 88 155 1.0 5.0 0.00 1.31 0.00 45 1013.7
20260902010059 89 135 5.0 9.0 0.00 1.31 0.00 42 1013.7
20260902004602 90 153 8.0 12.0 0.00 1.31 0.00 39 1013.6
20260902003100 92 126 7.0 14.0 0.00 1.31 0.00 38 1013.5
20260902001607 93 126 7.0 14.0 0.00 1.31 0.00 36 1013.2
20260901234613 93 142 12.0 16.0 0.00 1.31 0.00 34 1013.4
20260901233108 92 134 9.0 15.0 0.00 1.31 0.00 35 1013.3
20260901231605 92 121 12.0 17.0 0.00 1.31 0.00 39 1013.5
20260901230107 94 119 6.0 12.0 0.00 1.31 0.00 35 1013.5
20260901224604 94 134 5.0 14.0 0.00 1.31 0.00 33 1013.6
20260901223102 93 148 8.0 14.0 0.00 1.31 0.00 35 1013.9
20260901221558 94 195 10.0 19.0 0.00 1.31 0.00 36 1014.0
20260901220118 95 155 9.0 23.0 0.00 1.31 0.00 33 1013.7
20260901214559 95 198 8.0 16.0 0.00 1.31 0.00 34 1013.9
20260901213112 94 257 11.0 17.0 0.00 1.31 0.00 33 1013.9
20260901211558 94 286 12.0 18.0 0.00 1.31 0.00 32 1014.1
20260901210107 97 261 0.0 6.0 0.00 1.31 0.00 28 1014.4
20260901204600 97 0 1.0 3.0 0.00 1.31 0.00 28 1014.7
20260901203059 98 288 1.0 5.0 0.00 1.31 0.00 31 1014.7
20260901201603 97 51 3.0 9.0 0.00 1.31 0.00 31 1015.1
20260901194604 96 0 0.0 1.0 0.00 1.31 0.00 32 1015.4
20260901193114 95 44 1.0 6.0 0.00 1.31 0.00 37 1015.6